TimeCEST,TemperatureF,Dew PointF,Humidity,Sea Level PressureIn,VisibilityMPH,Wind Direction,Wind SpeedMPH,Gust SpeedMPH,PrecipitationIn,Events,Conditions,WindDirDegrees,DateUTC
2:00 AM,49,42,68,29.97,,North,4.5,,,,,10,2012-10-13 00:00:00
4:45 AM,46.4,41.0,81,29.95,-9999.0,North,3.5,-,N/A,,Clear,360,2012-10-13 02:45:00
5:45 AM,46.4,41.0,81,29.98,-9999.0,NW,3.5,-,N/A,,Clear,320,2012-10-13 03:45:00
6:15 AM,44.6,41.0,87,29.98,6.2,NNE,3.5,-,N/A,,Mostly Cloudy,30,2012-10-13 04:15:00
6:45 AM,44.6,41.0,87,29.98,6.2,NE,4.6,-,N/A,,Mostly Cloudy,40,2012-10-13 04:45:00
7:00 AM,-9999,-9999,N/A,-9999,6.2,Variable,3.5,-,N/A,,Overcast,0,2012-10-13 05:00:00
7:15 AM,44.6,41.0,87,29.98,4.3,North,2.3,-,N/A,,Mostly Cloudy,360,2012-10-13 05:15:00
7:45 AM,44.6,41.0,87,30.01,4.3,North,2.3,-,N/A,,Mostly Cloudy,350,2012-10-13 05:45:00
8:00 AM,45,41,82,30.00,4,North,2.2,,,,Partly Cloudy,350,2012-10-13 06:00:00
8:15 AM,46.4,41.0,81,30.01,4.3,NE,2.3,-,N/A,,Mostly Cloudy,40,2012-10-13 06:15:00
8:45 AM,48.2,41.0,76,30.01,4.3,NE,4.6,-,N/A,,Mostly Cloudy,40,2012-10-13 06:45:00
9:15 AM,50.0,42.8,76,30.01,4.3,ENE,4.6,-,N/A,,Mostly Cloudy,60,2012-10-13 07:15:00
9:45 AM,51.8,42.8,71,30.01,5.0,NNE,1.2,-,N/A,,Mostly Cloudy,30,2012-10-13 07:45:00
10:00 AM,-9999,-9999,N/A,-9999,-9999.0,NE,5.8,-,N/A,,Dust Whirls,40,2012-10-13 08:00:00
10:45 AM,57.2,42.8,59,30.01,5.0,NW,3.5,-,N/A,,Mostly Cloudy,320,2012-10-13 08:45:00
11:45 AM,59.0,42.8,55,30.01,-9999.0,North,4.6,-,N/A,,Clear,360,2012-10-13 09:45:00
12:15 PM,59.0,42.8,55,30.01,-9999.0,North,4.6,-,N/A,,Clear,350,2012-10-13 10:15:00
12:45 PM,60.8,42.8,52,30.01,-9999.0,North,4.6,-,N/A,,Clear,350,2012-10-13 10:45:00
1:00 PM,-9999,-9999,N/A,-9999,-9999.0,Variable,3.5,-,N/A,,Dust Whirls,0,2012-10-13 11:00:00
1:15 PM,60.8,42.8,52,30.01,-9999.0,NNW,8.1,-,N/A,,Clear,330,2012-10-13 11:15:00
2:00 PM,63,43,37,29.99,9,NNW,6.7,,,,Partly Cloudy,340,2012-10-13 12:00:00
2:45 PM,62.6,42.8,48,30.01,-9999.0,North,5.8,-,N/A,,Clear,360,2012-10-13 12:45:00
3:15 PM,60.8,42.8,52,29.98,-9999.0,NNE,5.8,-,N/A,,Clear,30,2012-10-13 13:15:00
3:45 PM,60.8,42.8,52,29.98,-9999.0,North,5.8,-,N/A,,Clear,10,2012-10-13 13:45:00
4:00 PM,-9999,-9999,N/A,-9999,-9999.0,Variable,3.5,-,N/A,,Clear,0,2012-10-13 14:00:00
4:45 PM,59.0,42.8,55,29.98,-9999.0,NNE,3.5,-,N/A,,Clear,20,2012-10-13 14:45:00
5:15 PM,59.0,42.8,55,29.98,-9999.0,North,3.5,-,N/A,,Clear,360,2012-10-13 15:15:00
5:45 PM,59.0,42.8,55,29.98,-9999.0,North,4.6,-,N/A,,Clear,10,2012-10-13 15:45:00
6:15 PM,57.2,42.8,59,29.98,-9999.0,North,4.6,-,N/A,,Clear,10,2012-10-13 16:15:00
6:45 PM,57.2,42.8,59,29.98,-9999.0,NNE,4.6,-,N/A,,Clear,20,2012-10-13 16:45:00
7:15 PM,57.2,42.8,59,29.98,-9999.0,NNE,3.5,-,N/A,,Clear,20,2012-10-13 17:15:00
7:45 PM,57.2,42.8,59,29.98,-9999.0,NNE,4.6,-,N/A,,Clear,20,2012-10-13 17:45:00
8:00 PM,57,43,48,29.97,11,NNE,4.5,,,,Partly Cloudy,20,2012-10-13 18:00:00
8:00 PM,-9999,-9999,N/A,-9999,-9999.0,North,-9999.0,-,N/A,,Unknown,0,2012-10-13 18:00:00